Las Vegas, NM

12:21 AM MDT on August 24, 2016 (GMT -0600)
Las Vegas Municipal

Weather History for KLVS - October, 2013

Change the Weather History Date:

Friday, October 11, 2013

  Actual Average Record
Temperature  
Mean Temperature 47 °F -  
Max Temperature 64 °F 68 °F 82 °F (1979)
Min Temperature 30 °F 38 °F 26 °F (2001)
Degree Days  
Heating Degree Days 18    
Moisture  
Dew Point 21 °F    
Average Humidity 44    
Maximum Humidity 75    
Minimum Humidity 11    
Precipitation  
Precipitation 0.00 in - - ()
Sea Level Pressure  
Sea Level Pressure 29.84 in    
Wind  
Wind Speed 9 mph (West)    
Max Wind Speed 24 mph    
Max Gust Speed 29 mph    
Visibility 10 miles    
Events      
Averages and records for this station are not official NWS values.
T = Trace of Precipitation, MM = Missing Value Source: NWS Daily Summary

Daily Weather History Graph

Daily Weather History Graph

Search for Another Location

Airport or City:

Trip Planner

Search our weather history database for the weather conditions in past years. The results will help you decide how hot, cold, wet, or windy it might be!

Date:

Astronomy

Oct. 11, 2013 Rise Set
Actual Time 7:03 AM MDT 6:29 PM MDT
Civil Twilight 6:38 AM MDT 6:55 PM MDT
Nautical Twilight 6:08 AM MDT 7:25 PM MDT
Astronomical Twilight 5:39 AM MDT 7:54 PM MDT
Moon 1:41 PM MDT (10/11) No Moon Set
Length of Visible Light 12h 17m
Length of Day
11h 26m
Waxing Crescent, 48% of the Moon is Illuminated
Oct 11
Waxing Crescent
Oct 11
First Quarter
Oct 18
Full
Oct 26
Last Quarter
Nov 3
New

Hourly Weather History & Observations

Time (MDT) Temp. Windchill Dew Point Humidity Pressure Visibility Wind Dir Wind Speed Gust Speed Precip Events Conditions
12:53 AM 32.0 °F 25.6 °F 21.9 °F 66% 29.80 in 10.0 mi South 6.9 mph - N/A   Clear
1:53 AM 30.9 °F 23.5 °F 23.0 °F 72% 29.79 in 10.0 mi South 8.1 mph - N/A   Clear
2:53 AM 30.9 °F 22.8 °F 21.9 °F 69% 29.83 in 10.0 mi SSW 9.2 mph - N/A   Clear
3:53 AM 30.9 °F 23.5 °F 21.9 °F 69% 29.85 in 10.0 mi South 8.1 mph - N/A   Clear
4:53 AM 30.0 °F 20.5 °F 23.0 °F 75% 29.83 in 10.0 mi South 11.5 mph - N/A   Clear
5:53 AM 30.0 °F 21.1 °F 21.9 °F 72% 29.84 in 10.0 mi South 10.4 mph - N/A   Clear
6:53 AM 30.9 °F 25.2 °F 21.9 °F 69% 29.85 in 10.0 mi West 5.8 mph - N/A   Clear
7:53 AM 44.1 °F 39.5 °F 17.1 °F 34% 29.80 in 10.0 mi West 8.1 mph - N/A   Clear
8:53 AM 44.1 °F 39.0 °F 21.9 °F 42% 29.83 in 10.0 mi SSW 9.2 mph - N/A   Clear
9:53 AM 48.9 °F - 25.0 °F 39% 29.81 in 10.0 mi South 8.1 mph - N/A   Clear
10:53 AM 54.0 °F - 25.0 °F 33% 29.81 in 10.0 mi Calm Calm - N/A   Clear
11:53 AM 57.9 °F - 25.0 °F 28% 29.81 in 10.0 mi Calm Calm - N/A   Clear
12:53 PM 60.1 °F - 21.0 °F 22% 29.79 in 10.0 mi Calm Calm - N/A   Clear
1:53 PM 64.0 °F - 12.9 °F 14% 29.76 in 10.0 mi WNW 12.7 mph 17.3 mph N/A   Clear
2:53 PM 64.0 °F - 9.0 °F 12% 29.76 in 10.0 mi NW 19.6 mph 23.0 mph N/A   Clear
3:53 PM 62.1 °F - 7.0 °F 11% 29.79 in 10.0 mi WNW 17.3 mph - N/A   Clear
4:53 PM 59.0 °F - 15.1 °F 18% 29.83 in 10.0 mi WNW 18.4 mph 25.3 mph N/A   Clear
5:53 PM 55.0 °F - 19.0 °F 24% 29.88 in 10.0 mi WNW 18.4 mph 27.6 mph N/A   Clear
6:53 PM 50.0 °F - 19.9 °F 31% 29.91 in 10.0 mi WNW 24.2 mph 28.8 mph N/A   Clear
7:53 PM 46.9 °F - 21.9 °F 37% 29.90 in 10.0 mi WNW 12.7 mph - N/A   Clear
8:53 PM 42.1 °F 38.4 °F 24.1 °F 49% 29.96 in 10.0 mi NNW 5.8 mph - N/A   Clear
9:53 PM 39.0 °F - 25.0 °F 57% 29.96 in 10.0 mi Calm Calm - N/A   Clear
10:53 PM 37.9 °F 32.1 °F 25.0 °F 60% 29.95 in 10.0 mi NNW 8.1 mph - N/A   Clear
11:53 PM 37.9 °F 31.5 °F 25.0 °F 60% 29.94 in 10.0 mi NW 9.2 mph - N/A   Clear